Weather History for KCNM - November, 2012

Change the Weather History Date:

Thursday, November 1, 2012

  Actual Average Record
Temperature  
Mean Temperature 60 °F -  
Max Temperature 81 °F - - ()
Min Temperature 39 °F - - ()
Degree Days  
Heating Degree Days 5    
Growing Degree Days 10 (Base 50)    
Moisture  
Dew Point 31 °F    
Average Humidity 37    
Maximum Humidity 70    
Minimum Humidity 14    
Precipitation  
Precipitation 0.00 in - - ()
Sea Level Pressure  
Sea Level Pressure 29.95 in    
Wind  
Wind Speed 4 mph (SSW)    
Max Wind Speed 12 mph    
Max Gust Speed -    
Visibility 10 miles    
Events      
T = Trace of Precipitation, MM = Missing Value Source: NWS Daily Summary

Daily Weather History Graph

Daily Weather History Graph

Search for Another Location

Airport or City:

Trip Planner

Search our weather history database for the weather conditions in past years. The results will help you decide how hot, cold, wet, or windy it might be!

Date:

Astronomy

Nov. 01, 2012 Rise Set
Actual Time 7:14 AM MDT 6:06 PM MDT
Civil Twilight 6:49 AM MDT 6:31 PM MDT
Nautical Twilight 6:20 AM MDT 7:00 PM MDT
Astronomical Twilight 5:51 AM MDT 7:29 PM MDT
Moon 8:12 PM MDT (11/1) 9:42 AM MDT (11/1)
Length of Visible Light 11h 42m
Length of Day
10h 51m
Waning Gibbous, 92% of the Moon is Illuminated
Nov 1
Waning Gibbous
Nov 6
Last Quarter
Nov 13
New
Nov 20
First Quarter
Nov 28
Full

Hourly Weather History & Observations

Time (MDT) Temp. Windchill Dew Point Humidity Pressure Visibility Wind Dir Wind Speed Gust Speed Precip Events Conditions
12:53 AM 50.0 °F - 30.9 °F 48% 29.98 in 10.0 mi Calm Calm - N/A   Clear
1:53 AM 46.9 °F - 30.0 °F 52% 29.99 in 10.0 mi South 5.8 mph - N/A   Clear
2:53 AM 45.0 °F - 30.0 °F 56% 29.98 in 10.0 mi Calm Calm - N/A   Clear
3:53 AM 44.1 °F 41.5 °F 30.0 °F 58% 29.97 in 10.0 mi WNW 4.6 mph - N/A   Clear
4:53 AM 43.0 °F 39.5 °F 30.0 °F 60% 29.98 in 10.0 mi NW 5.8 mph - N/A   Clear
5:53 AM 43.0 °F 39.5 °F 30.0 °F 60% 30.00 in 10.0 mi WNW 5.8 mph - N/A   Clear
6:53 AM 39.0 °F - 30.0 °F 70% 30.04 in 10.0 mi Calm Calm - N/A   Clear
7:53 AM 43.0 °F 40.3 °F 30.9 °F 62% 30.06 in 10.0 mi NW 4.6 mph - N/A   Clear
8:53 AM 55.9 °F - 28.9 °F 36% 30.05 in 10.0 mi NW 4.6 mph - N/A   Clear
9:53 AM 62.1 °F - 26.1 °F 25% 30.03 in 10.0 mi North 6.9 mph - N/A   Clear
10:53 AM 64.9 °F - 27.0 °F 24% 30.03 in 10.0 mi Calm Calm - N/A   Clear
11:53 AM 69.1 °F - 28.9 °F 22% 30.00 in 10.0 mi Calm Calm - N/A   Clear
12:53 PM 73.9 °F - 30.9 °F 21% 29.96 in 10.0 mi Variable 4.6 mph - N/A   Clear
1:53 PM 77.0 °F - 34.0 °F 21% 29.91 in 10.0 mi Variable 3.5 mph - N/A   Clear
2:53 PM 79.0 °F - 34.0 °F 20% 29.89 in 10.0 mi ESE 4.6 mph - N/A   Clear
3:53 PM 81.0 °F - 30.0 °F 16% 29.87 in 10.0 mi SE 8.1 mph - N/A   Clear
4:53 PM 80.1 °F - 27.0 °F 14% 29.86 in 10.0 mi ESE 6.9 mph - N/A   Clear
5:53 PM 75.0 °F - 28.0 °F 18% 29.88 in 10.0 mi Calm Calm - N/A   Clear
6:53 PM 64.9 °F - 30.0 °F 27% 29.91 in 10.0 mi South 6.9 mph - N/A   Clear
7:53 PM 64.9 °F - 30.0 °F 27% 29.92 in 10.0 mi South 10.4 mph - N/A   Clear
8:53 PM 63.0 °F - 32.0 °F 31% 29.90 in 10.0 mi South 11.5 mph - N/A   Clear
9:53 PM 62.1 °F - 34.0 °F 35% 29.90 in 10.0 mi SSW 11.5 mph - N/A   Clear
10:53 PM 62.1 °F - 35.1 °F 37% 29.89 in 10.0 mi South 11.5 mph - N/A   Clear
11:53 PM 57.0 °F - 35.1 °F 44% 29.89 in 10.0 mi South 9.2 mph - N/A   Clear